Location: Grundy Observatory
(40.0525°N, 76.3328°W)
Time: 15:10:52
(UTC-04:00)

Daily predictions for brighter satellites

Satellite Brightness Start Highest point End
(mag) Time Altitude Azimuth Time Altitude Azimuth Time Altitude Azimuth
COSMOS 2455 3.2 20:48:02 10° S 20:53:37 42° ESE 20:59:14 10° NE
Envisat 4.0 20:52:21 10° SE 20:56:46 31° ENE 21:01:12 10° N
H-2A R/B 3.0 20:52:51 10° S 20:56:47 79° WSW 21:00:46 10° NNW
APEX 3.9 20:55:18 10° NNW 20:59:33 79° WSW 21:05:08 10° SSE
Cosmos 1602 Rocket 3.9 20:56:20 10° SSE 21:00:39 50° E 21:04:58 10° NNE
Cosmos 2058 Rocket 3.4 20:57:09 10° NNW 21:01:31 71° W 21:05:50 10° S
CZ-4 DEB 3.4 20:58:26 10° S 21:01:36 57° WSW 21:04:47 10° NNW
Tsikada Rocket 4.4 20:56:15 10° SSE 21:02:22 49° E 21:08:27 10° NNE
Cosmos 1812 Rocket 4.1 21:08:00 10° N 21:12:13 42° ENE 21:16:24 10° SSE
Cosmos 1464 Rocket 4.2 21:11:42 10° N 21:17:49 74° W 21:23:59 10° S
deb Chang Zheng 4 3.6 21:18:10 10° NNE 21:22:35 90° N 21:26:57 10° SSW
H-2A R/B 2.1 21:20:07 10° SSE 21:24:22 88° WSW 21:28:46 10° NNW
Cosmos 2369 Rocket 3.0 21:22:29 10° N 21:27:46 39° ENE 21:32:08 14° ESE
Cosmos 1992 Rocket 4.3 21:26:02 10° N 21:31:07 51° ENE 21:35:13 15° SE
Cosmos 1666 3.8 21:28:04 10° NNW 21:31:49 45° W 21:35:31 10° SSW
Cosmos 1626 Rocket 3.8 21:27:56 10° SSW 21:32:21 72° W 21:36:46 10° N
Cosmos 2228 4.0 21:28:43 10° NNW 21:32:58 48° W 21:37:11 10° SSW
Cosmos 1634 Rocket 4.5 21:30:59 10° N 21:36:50 43° ENE 21:41:30 16° SE
Lacrosse 4 Rocket 2.0 21:33:30 10° S 21:37:07 32° ESE 21:40:47 10° NE
CZ-2C R/B 2.8 21:35:34 10° SSW 21:37:25 21° W 21:39:15 10° NW
Cosmos 2034 Rocket 4.4 21:32:07 10° NNW 21:38:26 69° W 21:44:41 10° S
SeaSat 1 2.8 21:38:41 17° SE 21:42:24 55° ENE 21:47:14 10° NNW
Cosmos 1238 4.3 21:48:45 10° SSW 21:51:52 72° W 21:54:52 10° N
Cosmos 1953 Rocket 4.0 21:49:27 20° SSE 21:52:06 41° E 21:56:17 10° NNE
Cosmos 1190 Rocket 4.1 21:49:07 10° S 21:54:19 61° ESE 21:59:34 10° NNE
CZ-4B R/B 3.6 21:50:49 10° NNE 21:55:53 60° ESE 22:00:41 12° S
YAOGAN 6 3.0 21:54:35 26° SE 21:56:24 50° ENE 22:00:03 10° N
Cosmos 2346 Rocket 4.5 21:50:55 10° S 21:56:59 65° E 22:03:03 10° NNE
H-2A R/B 3.5 21:55:22 15° E 21:57:46 21° ENE 22:01:31 10° NNE
Atlas Centaur 2 3.4 21:54:28 10° WSW 22:01:17 41° S 22:06:34 20° ESE
Cosmos 1515 4.0 21:58:43 10° SSW 22:02:33 69° W 22:06:25 10° N
COSMOS 2406 4.4 22:03:47 21° ESE 22:04:45 22° E 22:09:00 10° NE
ATLAS 3B R/B 2.9 21:58:46 10° SSW 22:06:27 77° ESE 22:14:01 10° NE
SPOT 1/Viking Rocket 3.6 22:03:18 23° SSE 22:06:28 66° ENE 22:11:35 10° N
BREEZE-M DEB (TANK) 3.4 22:03:09 10° WSW 22:06:45 40° NNW 22:08:47 10° NE
CZ-4C R/B 4.4 22:05:22 25° ESE 22:06:53 33° ENE 22:10:32 10° N
ISS -1.2 22:04:36 10° W 22:07:32 30° NNW 22:10:29 10° NE
Cosmos 1066 Rocket 4.2 22:02:16 10° S 22:07:54 81° E 22:13:45 10° NNE
Cosmos 676 Rocket 4.2 22:07:50 19° S 22:11:24 51° ESE 22:16:33 10° NNE
Meteor 1-22 Rocket 4.3 22:08:16 10° N 22:13:53 70° E 22:17:17 26° SSE
MetOp-A 4.3 22:13:38 20° S 22:17:27 70° WSW 22:22:49 10° NNW
CZ-4 R/B 3.9 22:13:06 10° NNE 22:18:06 68° ESE 22:21:17 23° S
PSLV R/B 3.5 22:17:15 10° W 22:20:47 73° N 22:22:22 30° E
Cosmos 1953 3.5 22:20:06 10° NNE 22:23:30 26° ENE 22:23:57 26° E
USA 234 3.4 22:19:10 23° ESE 22:23:32 70° NE 22:30:04 10° NW
Cosmos 1943 Rocket 2.8 22:19:47 10° N 22:25:06 44° ENE 22:27:31 28° ESE
Cosmos 1758 Rocket 3.4 22:23:41 29° S 22:25:52 81° E 22:30:14 10° N
SPOT 5 3.8 22:23:00 15° SSW 22:26:10 37° W 22:30:12 10° NNW
BREEZE M DEB (TANK) 1.5 22:24:18 10° WNW 22:25:59 57° WNW 22:25:59 57° WNW
Cosmos 1943 3.8 22:22:14 10° SW 22:27:49 60° WNW 22:33:27 10° NNE
CARTOSAT-1 4.4 22:28:09 31° E 22:29:11 35° ENE 22:33:08 10° N
Terra 2.5 22:31:28 32° ESE 22:32:51 39° ENE 22:37:16 10° N
Cosmos 1346 Rocket 3.4 22:34:25 22° SSW 22:36:44 53° WNW 22:40:36 10° N
DELTA 2 DEB (DPAF) 4.1 22:38:40 44° SSE 22:40:03 82° ENE 22:44:35 10° N
Cosmos 407 Rocket 3.8 22:34:57 10° SSW 22:40:11 66° WNW 22:45:24 10° NNE
Cosmos 1842 3.1 22:44:54 63° SSE 22:45:27 78° E 22:49:23 10° N
SL-27 R/B 2.7 22:46:07 53° NE 22:46:07 53° NE 22:48:52 10° NNE
USA 238 DEB 3.7 22:43:03 16° SSW 22:48:51 63° ESE 22:55:50 10° NE
USA 238 3.7 22:43:19 16° SSW 22:48:57 63° ESE 22:55:55 10° NE
Meteor 1-21 4.4 22:47:54 23° SSW 22:51:37 75° W 22:57:28 10° N
Cosmos 1842 Rocket 4.1 22:53:12 10° N 22:57:22 41° ENE 22:57:35 41° E
ARGOS 3.7 22:55:38 30° SSW 22:58:06 53° W 23:03:26 10° NNW
Cosmos 1954 Rocket 4.1 22:57:35 26° SSW 23:00:39 75° WNW 23:05:59 10° NNE
Cosmos 1092 Rocket 4.3 23:02:29 41° SE 23:04:01 49° E 23:10:03 10° NNE
IGS 5A 3.3 23:05:31 74° ESE 23:05:45 78° ENE 23:09:55 10° N
Cosmos 2208 Rocket 4.1 23:01:59 10° NNW 23:07:07 60° ENE 23:08:05 50° ESE
Cosmos 1766 4.4 23:06:22 10° NNW 23:10:05 38° W 23:10:50 34° WSW
Cosmos 1758 3.2 23:06:41 10° N 23:10:49 84° W 23:10:56 82° SW
Cosmos 2369 Rocket 3.6 23:06:50 10° NW 23:11:36 29° WSW 23:13:56 22° SW
Meteor 2-5 Rocket 4.3 23:11:50 39° ESE 23:12:26 40° E 23:17:47 10° NNE
Nadezhda 4 Rocket 3.9 23:11:18 44° S 23:13:30 79° E 23:19:51 10° N
Cosmos 2084 3.3 23:11:28 10° NW 23:15:39 89° ENE 23:15:41 89° ESE
Lacrosse 4 Rocket 3.8 23:12:45 10° WSW 23:15:53 21° NW 23:19:05 10° N
SL-8 R/B 4.4 23:13:58 10° NW 23:18:42 51° NNE 23:20:17 36° ENE
SeaSat 1 4.4 23:18:29 16° SW 23:20:11 19° WSW 23:23:38 10° WNW
Cosmos 1741 Rocket 3.9 23:21:13 60° S 23:22:12 83° ESE 23:27:32 10° NNE
NOSS 3-2 (C) 4.3 23:24:06 33° E 23:24:06 33° E 23:29:07 10° NE
Cosmos 1340 3.7 23:34:32 39° NNE 23:34:32 39° NNE 23:37:06 10° NNE
Cosmos 2221 3.7 23:31:02 10° N 23:34:25 33° ENE 23:34:25 33° ENE
Cosmos 1655 Rocket 4.4 23:35:25 44° ESE 23:36:10 46° E 23:42:05 10° NNE
H-2A R/B 2.6 23:36:00 40° SW 23:36:50 44° W 23:41:41 10° NNW
Cosmos 1470 3.4 23:33:31 10° N 23:36:33 49° NNE 23:36:33 49° NNE
Cosmos-2242 4.3 23:33:45 10° NNW 23:37:41 32° W 23:38:15 31° WSW
Cosmos 1850 Rocket 4.2 23:37:40 49° SW 23:38:58 68° WNW 23:44:11 10° NNE
Cosmos 1805 4.3 23:36:02 10° NNW 23:39:29 40° W 23:39:29 40° W
Cosmos 1570 Rocket 4.2 23:36:14 10° NNW 23:41:32 62° WSW 23:42:07 58° SW
CZ-4C R/B 2.5 23:45:27 49° E 23:45:27 49° E 23:50:27 10° NE
ISS 0.2 23:43:26 10° NNW 23:44:47 12° N 23:46:08 10° NNE
Cosmos 1544 4.1 23:43:06 10° NNW 23:45:56 46° NW 23:45:56 46° NW
COSMOS 2406 3.9 23:45:47 27° SW 23:48:38 51° WNW 23:54:14 10° NNE
Cosmos 1607 4.1 23:45:43 29° SW 23:49:01 68° NW 23:55:14 10° NNE
Atlas Centaur 2 3.8 23:43:24 10° WSW 23:49:13 33° SSW 23:49:13 33° SSW
Cosmos 2026 Rocket 3.9 23:52:27 61° SE 23:53:04 65° E 23:59:04 10° NNE
